Погода в Больших Ключищах

Россия / Ульяновская область     54°08′19″N   48°14′06″E
темп.,
°C
ветер,
м/с
пор.,
м/с
влажн.,
%
обл.,
%
осадки,
мм/ч
давл.,
гПа
погр.,
м
13 апреля, вт
вт1301:00+7в24100100 0.0 103593
04:00+6в1210098 0.0 103543
07:00+6в129994 0.0 103663
10:00+10юв238337 0.0 1035180
13:00+15юв365586 0.0 1034626
16:00+17ююв46475 0.0 1033767
19:00+14юв23655 0.0 103248
22:00+11юв22765 0.0 103220
14 апреля, ср
ср1401:00+9ю22747 0.0 103114
04:00+8ююв22748 0.0 103110
07:00+6юв227415 0.0 103016
10:00+11юв35685 0.0 1030274
13:00+14юв46635 0.0 1028659
16:00+16юв46555 0.0 1026764
19:00+14юв24662 0.0 102568
22:00+11юв22760 0.0 102524
15 апреля, чт
чт1501:00+9ююв22822 0.0 102415
04:00+8ююв11850 0.0 102310
07:00+8юв11871 0.0 102314
10:00+12юв23661 0.0 1022275
13:00+16вюв23491 0.0 1020863
16:00+17юв24421 0.0 10191324
19:00+16в11510 0.0 101823
22:00+12в11620 0.0 101810
16 апреля, пт
пт1601:00+11в11677 0.0 101710
04:00+10с117386 0.0 101710
07:00+10св1173100 0.0 101711
10:00+12св116335 0.0 1017128
13:00+17св33477 0.0 1017713
16:00+16ссв665043 0.0 1017905
19:00+12ссв597639 0.1 1018537
22:00+8ссв6128051 0.1 1020497
17 апреля, сб
сб1701:00+6ссв61180100 0.0 1021533
04:00+4ссв611765 0.0 1022499
07:00+3ссв511590 0.0 1023567
10:00+5ссв610403 0.0 10241099
13:00+8ссв6103741 0.0 10242015
16:00+8с811325 0.0 10242395
19:00+6ссв812410 0.0 10262049
22:00+3ссв813555 0.0 10291270